Ankeny, IA

10:25 PM CDT on July 20, 2017 (GMT -0500)
Ankeny Regional

Weather History for KIKV - March, 2013

Change the Weather History Date:

Monday, March 18, 2013

  Actual Average (KDSM) Record (KDSM)
Temperature  
Mean Temperature 29 °F -  
Max Temperature 35 °F 47 °F 83 °F (2012)
Min Temperature 21 °F 29 °F -3 °F (1923)
Degree Days  
Heating Degree Days 36    
Moisture  
Dew Point 22 °F    
Average Humidity 75    
Maximum Humidity 93    
Minimum Humidity 55    
Precipitation  
Precipitation 0.11 in - - ()
Sea Level Pressure  
Sea Level Pressure 29.83 in    
Wind  
Wind Speed 12 mph (West)    
Max Wind Speed 31 mph    
Max Gust Speed 40 mph    
Visibility 7 miles    
Events Snow    
Averages and records for this station are not official NWS values.
T = Trace of Precipitation, MM = Missing Value Source: NWS Daily Summary

Daily Weather History Graph

Daily Weather History Graph

Search for Another Location

Airport or City:

Trip Planner

Search our weather history database for the weather conditions in past years. The results will help you decide how hot, cold, wet, or windy it might be!

Date:

Astronomy

Mar. 18, 2013 Rise Set
Actual Time 7:20 AM CDT 7:24 PM CDT
Civil Twilight 6:52 AM CDT 7:52 PM CDT
Nautical Twilight 6:20 AM CDT 8:24 PM CDT
Astronomical Twilight 5:47 AM CDT 8:57 PM CDT
Moon 11:15 AM CDT (3/18) 1:29 AM CDT (3/18)
Length of Visible Light 12h 59m
Length of Day
12h 04m
Waxing Crescent, 41% of the Moon is Illuminated
Mar 18
Waxing Crescent
Mar 19
First Quarter
Mar 27
Full
Apr 2
Last Quarter
Apr 10
New

Hourly Weather History & Observations

Time (CDT) Temp. Windchill Dew Point Humidity Pressure Visibility Wind Dir Wind Speed Gust Speed Precip Events Conditions
12:15 AM 33.8 °F 26.4 °F 26.6 °F 75% 29.84 in 10.0 mi ESE 9.2 mph - N/A   Overcast
12:35 AM 33.8 °F 26.4 °F 26.6 °F 75% 29.83 in 10.0 mi ESE 9.2 mph - N/A   Overcast
12:55 AM 33.8 °F 27.0 °F 28.4 °F 81% 29.82 in 5.0 mi ESE 8.1 mph - N/A   Overcast
1:15 AM 33.8 °F 26.4 °F 28.4 °F 81% 29.82 in 4.0 mi ESE 9.2 mph - N/A   Overcast
1:35 AM 32.0 °F 24.8 °F 28.4 °F 87% 29.81 in 3.0 mi East 8.1 mph - N/A   Overcast
1:55 AM 32.0 °F 25.6 °F 28.4 °F 87% 29.80 in 3.0 mi ESE 6.9 mph - N/A   Overcast
2:15 AM 32.0 °F 28.7 °F 28.4 °F 87% 29.81 in 4.0 mi SE 3.5 mph - 0.01 in   Overcast
2:35 AM 32.0 °F 27.5 °F 28.4 °F 87% 29.80 in 4.0 mi SE 4.6 mph - 0.01 in   Overcast
2:55 AM 32.0 °F 27.5 °F 28.4 °F 87% 29.79 in 3.0 mi SE 4.6 mph - 0.01 in   Overcast
3:15 AM 30.2 °F 21.9 °F 28.4 °F 93% 29.76 in 4.0 mi ESE 9.2 mph - N/A   Overcast
3:35 AM 30.2 °F 25.4 °F 28.4 °F 93% 29.76 in 4.0 mi SE 4.6 mph - N/A   Overcast
3:55 AM 30.2 °F 26.7 °F 28.4 °F 93% 29.76 in 4.0 mi SSE 3.5 mph - N/A   Overcast
4:15 AM 30.2 °F 25.4 °F 28.4 °F 93% 29.76 in 5.0 mi SSE 4.6 mph - N/A   Overcast
4:35 AM 30.2 °F 25.4 °F 28.4 °F 93% 29.75 in 4.0 mi SE 4.6 mph - N/A   Overcast
4:55 AM 30.2 °F 22.6 °F 28.4 °F 93% 29.74 in 5.0 mi SE 8.1 mph - N/A   Overcast
5:15 AM 30.2 °F 21.9 °F 28.4 °F 93% 29.74 in 5.0 mi SSE 9.2 mph - N/A   Overcast
5:35 AM 30.2 °F 25.4 °F 28.4 °F 93% 29.76 in 1.5 mi South 4.6 mph - 0.01 in Snow Snow
5:55 AM 30.2 °F 25.4 °F 28.4 °F 93% 29.75 in 0.8 mi SSE 4.6 mph - 0.01 in Snow Snow
6:15 AM 30.2 °F 25.4 °F 28.4 °F 93% 29.74 in 1.0 mi SSE 4.6 mph - 0.01 in Snow Light Snow
6:35 AM 30.2 °F 26.7 °F 26.6 °F 86% 29.74 in 1.8 mi SSE 3.5 mph - 0.01 in Snow Snow
6:55 AM 30.2 °F 26.7 °F 28.4 °F 93% 29.74 in 2.0 mi South 3.5 mph - 0.04 in   Overcast
7:15 AM 30.2 °F 26.7 °F 28.4 °F 93% 29.73 in 1.5 mi South 3.5 mph - 0.02 in Snow Light Snow
7:35 AM 30.2 °F 26.7 °F 28.4 °F 93% 29.73 in 2.0 mi South 3.5 mph - 0.03 in   Overcast
7:55 AM 32.0 °F 27.5 °F 28.4 °F 87% 29.73 in 2.5 mi South 4.6 mph - 0.04 in   Overcast
8:15 AM 33.8 °F 29.6 °F 30.2 °F 87% 29.72 in 2.5 mi South 4.6 mph - 0.01 in   Overcast
8:35 AM 33.8 °F 28.6 °F 30.2 °F 87% 29.72 in 3.0 mi SSW 5.8 mph - 0.01 in   Overcast
8:55 AM 33.8 °F 27.7 °F 30.2 °F 87% 29.72 in 4.0 mi WSW 6.9 mph - 0.01 in   Overcast
9:15 AM 33.8 °F 26.4 °F 30.2 °F 87% 29.72 in 5.0 mi West 9.2 mph - N/A   Overcast
9:35 AM 33.8 °F 26.4 °F 30.2 °F 87% 29.72 in 7.0 mi West 9.2 mph - N/A   Overcast
9:55 AM 35.6 °F 25.9 °F 30.2 °F 81% 29.72 in 10.0 mi NW 16.1 mph 27.6 mph N/A   Overcast
10:15 AM 33.8 °F 22.8 °F 26.6 °F 75% 29.74 in 10.0 mi West 18.4 mph 26.5 mph N/A   Overcast
10:35 AM 32.0 °F 20.8 °F 24.8 °F 75% 29.74 in 10.0 mi WNW 17.3 mph 26.5 mph N/A   Overcast
10:55 AM 32.0 °F 21.6 °F 24.8 °F 75% 29.75 in 10.0 mi West 15.0 mph 26.5 mph N/A   Overcast
11:15 AM 32.0 °F 19.2 °F 24.8 °F 75% 29.76 in 10.0 mi WNW 23.0 mph 27.6 mph N/A   Overcast
11:35 AM 33.8 °F 22.8 °F 24.8 °F 70% 29.76 in 10.0 mi WNW 18.4 mph 23.0 mph N/A   Mostly Cloudy
11:55 AM 32.0 °F 20.5 °F 23.0 °F 69% 29.77 in 10.0 mi WNW 18.4 mph 27.6 mph N/A   Scattered Clouds
12:15 PM 32.0 °F 19.5 °F 21.2 °F 64% 29.78 in 10.0 mi WNW 21.9 mph 29.9 mph N/A   Scattered Clouds
12:35 PM 32.0 °F 18.4 °F 21.2 °F 64% 29.79 in 10.0 mi WNW 26.5 mph 32.2 mph N/A   Scattered Clouds
12:55 PM 30.2 °F 16.5 °F 19.4 °F 64% 29.80 in 10.0 mi WNW 24.2 mph 36.8 mph N/A   Mostly Cloudy
1:15 PM 30.2 °F 17.8 °F 19.4 °F 64% 29.81 in 10.0 mi NW 19.6 mph 29.9 mph N/A   Overcast
1:35 PM 28.4 °F 13.8 °F 19.4 °F 69% 29.82 in 10.0 mi WNW 25.3 mph 33.4 mph N/A   Overcast
1:55 PM 28.4 °F 15.1 °F 19.4 °F 69% 29.83 in 10.0 mi WNW 20.7 mph 29.9 mph N/A   Overcast
2:15 PM 28.4 °F 13.5 °F 17.6 °F 64% 29.83 in 10.0 mi WNW 26.5 mph 34.5 mph N/A   Overcast
2:35 PM 28.4 °F 14.4 °F 17.6 °F 64% 29.84 in 10.0 mi WNW 23.0 mph 34.5 mph N/A   Overcast
2:55 PM 28.4 °F 14.7 °F 17.6 °F 64% 29.84 in 7.0 mi WNW 21.9 mph 35.7 mph N/A Snow Light Snow
3:15 PM 26.6 °F 10.0 °F 15.8 °F 64% 29.85 in 7.0 mi WNW 31.1 mph 38.0 mph N/A Snow Light Snow
3:35 PM 26.6 °F 11.4 °F 14.0 °F 59% 29.85 in 10.0 mi WNW 25.3 mph 34.5 mph N/A   Overcast
3:55 PM 28.4 °F 13.8 °F 15.8 °F 59% 29.86 in 10.0 mi WNW 25.3 mph 34.5 mph N/A   Overcast
4:15 PM 26.6 °F 12.4 °F 15.8 °F 64% 29.87 in 10.0 mi WNW 21.9 mph 32.2 mph N/A Snow Light Snow
4:35 PM 26.6 °F 12.0 °F 15.8 °F 64% 29.88 in 10.0 mi West 23.0 mph 35.7 mph N/A   Overcast
4:55 PM 26.6 °F 12.4 °F 15.8 °F 64% 29.88 in 10.0 mi WNW 21.9 mph 31.1 mph N/A   Overcast
5:15 PM 28.4 °F 14.4 °F 14.0 °F 55% 29.88 in 10.0 mi WNW 23.0 mph 40.3 mph N/A   Mostly Cloudy
5:35 PM 26.6 °F 12.0 °F 15.8 °F 64% 29.89 in 10.0 mi West 23.0 mph 35.7 mph N/A   Overcast
5:55 PM 26.6 °F 10.8 °F 12.2 °F 55% 29.90 in 10.0 mi WNW 27.6 mph 36.8 mph N/A   Overcast
6:15 PM 26.6 °F 11.7 °F 12.2 °F 55% 29.91 in 10.0 mi West 24.2 mph 36.8 mph N/A   Overcast
6:35 PM 26.6 °F 12.4 °F 12.2 °F 55% 29.91 in 10.0 mi WNW 21.9 mph 32.2 mph N/A   Overcast
7:15 PM 26.6 °F 14.7 °F 14.0 °F 59% 29.92 in 10.0 mi WNW 15.0 mph 27.6 mph N/A   Mostly Cloudy
7:35 PM 26.6 °F 13.4 °F 15.8 °F 64% 29.93 in 10.0 mi WNW 18.4 mph 25.3 mph N/A   Scattered Clouds
7:55 PM 26.6 °F 15.7 °F 15.8 °F 64% 29.93 in 10.0 mi WNW 12.7 mph 25.3 mph N/A   Clear
8:15 PM 26.6 °F 14.7 °F 15.8 °F 64% 29.94 in 10.0 mi WNW 15.0 mph 28.8 mph N/A   Clear
8:35 PM 26.6 °F 14.7 °F 15.8 °F 64% 29.94 in 10.0 mi WNW 15.0 mph 18.4 mph N/A   Clear
8:55 PM 24.8 °F 10.7 °F 15.8 °F 69% 29.95 in 10.0 mi WNW 19.6 mph 25.3 mph N/A   Clear
9:15 PM 26.6 °F 14.3 °F 15.8 °F 64% 29.96 in 10.0 mi WNW 16.1 mph 25.3 mph N/A   Clear
9:35 PM 24.8 °F 14.0 °F 15.8 °F 69% 29.97 in 10.0 mi WNW 11.5 mph 23.0 mph N/A   Clear
9:55 PM 24.8 °F 11.9 °F 14.0 °F 64% 29.98 in 10.0 mi NW 16.1 mph 24.2 mph N/A   Clear
10:15 PM 24.8 °F 13.4 °F 12.2 °F 59% 29.99 in 10.0 mi NW 12.7 mph 24.2 mph N/A   Clear
10:55 PM 24.8 °F 12.4 °F 12.2 °F 59% 29.99 in 10.0 mi NW 15.0 mph 25.3 mph N/A   Clear
11:15 PM 23.0 °F 10.1 °F 12.2 °F 63% 29.99 in 10.0 mi NW 15.0 mph 19.6 mph N/A   Clear
11:35 PM 23.0 °F 9.2 °F 12.2 °F 63% 29.98 in 10.0 mi NW 17.3 mph 21.9 mph N/A   Clear
11:55 PM 21.2 °F 9.5 °F 10.4 °F 63% 29.96 in 10.0 mi NW 11.5 mph 18.4 mph N/A   Clear